Date String (YYYY-MM-DD hh:mm:ss) UTC,Instrument flags,Ambient pressure (hPa),Sample flow (lpm),Bypass flow (lpm),Sample temperature (°C),Ambient temperature (°C),ASC tube jacket temperature (°C),LED temperature (°C),Box temperature (°C),Sample RH (%),Span deviation,Mass concentration (μg/m³),Mass concentration (μg/m³),Mass concentration (μg/m³)
DateTimeUTC,F1_M11,P_M11,Q1_M11,Q2_M11,T1_M11,T2_M11,T3_M11,T4_M11,T5_M11,U1_M11,ZSPAN_M11,X2_M11,X0_M11,X1_M11
2022-03-11 20:00:00,,0827.3,5.00,0.00,23.4,22.6,00.0,32.4,25.2,06.8,0000.4,0007.73,0012.98,0007.06
2022-03-11 20:01:00,,0827.2,5.00,0.00,23.4,22.6,00.0,32.5,25.2,06.8,0000.6,0007.88,0013.17,0007.21
2022-03-11 20:02:00,,0827.2,5.00,0.00,23.4,22.6,00.0,32.5,25.2,06.9,0000.8,0008.08,0013.33,0007.37
2022-03-11 20:03:00,,0827.6,5.00,0.00,23.4,22.6,00.0,32.5,25.2,06.5,0001.0,0008.30,0013.12,0007.55
2022-03-11 20:04:00,,0827.7,4.99,0.00,23.4,22.6,00.0,32.4,25.2,07.3,0001.3,0008.52,0013.48,0007.73
2022-03-11 20:05:00,,0827.3,5.01,0.00,23.4,22.6,00.0,32.4,25.2,07.2,0001.7,0008.66,0013.62,0007.87
2022-03-11 20:06:00,,0827.3,5.00,0.00,23.4,22.7,00.0,32.4,25.3,06.8,0001.6,0008.72,0013.60,0007.98
2022-03-11 20:07:00,,0827.2,4.99,0.00,23.5,22.7,00.0,32.4,25.3,06.7,0001.6,0008.78,0013.59,0008.07
2022-03-11 20:08:00,,0827.3,4.99,0.00,23.5,22.7,00.0,32.4,25.3,06.7,0001.5,0008.87,0013.72,0008.19
2022-03-11 20:09:00,,0827.3,5.01,0.00,23.5,22.8,00.0,32.4,25.4,07.0,0002.0,0008.98,0013.34,0008.31
2022-03-11 20:10:00,,0827.3,5.01,0.00,23.5,22.8,00.0,32.4,25.4,07.1,0001.9,0009.09,0013.27,0008.41
2022-03-11 20:11:00,,0827.3,5.00,0.00,23.5,22.8,00.0,32.4,25.4,06.9,0001.7,0009.16,0013.76,0008.46
2022-03-11 20:12:00,,0827.4,4.99,0.00,23.5,22.8,00.0,32.4,25.4,07.1,0002.0,0009.21,0013.92,0008.49
2022-03-11 20:13:00,,0827.3,4.99,0.00,23.5,22.8,00.0,32.4,25.4,07.2,0002.3,0009.19,0013.87,0008.50
2022-03-11 20:14:00,,0827.3,5.01,0.00,23.6,22.8,00.0,32.4,25.4,07.1,0002.0,0009.15,0014.30,0008.51
2022-03-11 20:15:00,,0827.3,5.01,0.00,23.6,22.9,00.0,32.4,25.5,06.8,0001.7,0009.15,0014.40,0008.56
2022-03-11 20:16:00,,0827.2,4.99,0.00,23.6,22.9,00.0,32.4,25.5,07.0,0002.1,0009.16,0014.41,0008.58
2022-03-11 20:17:00,,0827.3,4.99,0.00,23.6,22.9,00.0,32.5,25.5,07.3,0001.6,0009.25,0014.61,0008.64
2022-03-11 20:18:00,,0827.2,5.02,0.00,23.6,22.9,00.0,32.5,25.5,07.3,0001.6,0009.39,0014.80,0008.77
2022-03-11 20:19:00,,0827.2,5.00,0.00,23.6,22.9,00.0,32.5,25.5,07.3,0000.7,0009.53,0014.85,0008.91
2022-03-11 20:20:00,,0827.2,4.98,0.00,23.6,22.9,00.0,32.5,25.5,08.0,0001.8,0009.66,0015.08,0009.03
2022-03-11 20:21:00,,0827.5,4.98,0.00,23.6,22.9,00.0,32.5,25.5,07.5,0001.4,0009.76,0015.09,0009.18
2022-03-11 20:22:00,,0827.5,5.01,0.00,23.6,22.9,00.0,32.5,25.5,07.8,0001.1,0009.86,0014.83,0009.28
2022-03-11 20:23:00,,0827.6,4.99,0.00,23.6,22.8,00.0,32.5,25.4,08.1,0000.7,0010.03,0015.06,0009.46
2022-03-11 20:24:00,,0827.7,4.99,0.00,23.6,22.8,00.0,32.5,25.4,08.3,0000.6,0010.27,0015.41,0009.67
2022-03-11 20:25:00,,0827.4,5.00,0.00,23.6,22.8,00.0,32.5,25.4,08.1,0000.4,0010.39,0014.98,0009.78
2022-03-11 20:26:00,,0827.3,5.00,0.00,23.6,22.8,00.0,32.5,25.4,08.4,-000.1,0010.52,0014.98,0009.88
2022-03-11 20:27:00,,0827.3,5.02,0.00,23.6,22.8,00.0,32.5,25.4,08.1,-000.1,0010.73,0015.23,0010.10
2022-03-11 20:28:00,,0827.3,5.00,0.00,23.6,22.9,00.0,32.5,25.4,08.3,0000.5,0010.94,0015.60,0010.31
2022-03-11 20:29:00,,0827.3,4.99,0.00,23.6,22.9,00.0,32.5,25.4,08.7,0000.8,0011.13,0015.75,0010.51
2022-03-11 20:30:00,,0827.4,5.01,0.00,23.6,22.9,00.0,32.5,25.4,08.3,0001.3,0011.34,0015.99,0010.71
2022-03-11 20:31:00,,0827.3,5.00,0.00,23.6,22.9,00.0,32.5,25.5,08.5,0001.0,0011.54,0016.23,0010.92
2022-03-11 20:32:00,,0827.3,4.99,0.00,23.7,22.9,00.0,32.5,25.5,09.2,0000.7,0011.77,0016.77,0011.11
2022-03-11 20:33:00,,0827.3,5.00,0.00,23.7,22.9,00.0,32.5,25.5,08.7,0001.4,0011.90,0016.85,0011.25
2022-03-11 20:34:00,,0827.4,5.00,0.00,23.7,22.9,00.0,32.5,25.5,08.0,0001.3,0011.94,0016.73,0011.31
2022-03-11 20:35:00,,0827.4,4.99,0.00,23.7,22.9,00.0,32.5,25.5,08.1,0001.3,0011.99,0017.33,0011.36
2022-03-11 20:36:00,,0827.4,5.01,0.00,23.7,22.9,00.0,32.6,25.5,08.0,0001.1,0012.17,0017.60,0011.53
2022-03-11 20:37:00,,0827.4,5.00,0.00,23.7,22.9,00.0,32.6,25.4,08.3,0001.6,0012.31,0018.03,0011.68
2022-03-11 20:38:00,,0827.4,4.99,0.00,23.6,22.8,00.0,32.6,25.4,07.9,0001.7,0012.37,0018.37,0011.74
2022-03-11 20:39:00,,0827.3,5.01,0.00,23.6,22.7,00.0,32.6,25.3,08.3,0001.3,0012.40,0018.34,0011.77
2022-03-11 20:40:00,,0827.4,4.99,0.00,23.6,22.7,00.0,32.6,25.3,08.6,0001.5,0012.43,0018.62,0011.79
2022-03-11 20:41:00,,0827.4,5.02,0.00,23.6,22.7,00.0,32.6,25.2,08.5,0001.3,0012.45,0018.79,0011.81
2022-03-11 20:42:00,,0827.4,4.99,0.00,23.5,22.7,00.0,32.6,25.2,08.6,0001.6,0012.47,0018.94,0011.83
2022-03-11 20:43:00,,0827.4,4.99,0.00,23.5,22.7,00.0,32.5,25.2,08.8,0001.5,0012.47,0018.87,0011.85
2022-03-11 20:44:00,,0827.4,5.01,0.00,23.5,22.7,00.0,32.5,25.2,08.5,0000.7,0012.55,0019.17,0011.92
2022-03-11 20:45:00,,0827.4,5.02,0.00,23.5,22.7,00.0,32.5,25.2,08.1,0000.6,0012.62,0019.75,0011.99
2022-03-11 20:46:00,,0827.3,4.99,0.00,23.5,22.6,00.0,32.5,25.1,08.1,0000.8,0012.68,0019.24,0012.06
2022-03-11 20:47:00,,0827.4,5.00,0.00,23.5,22.6,00.0,32.5,25.1,08.4,0001.1,0012.73,0019.25,0012.11
2022-03-11 20:48:00,,0827.4,4.99,0.00,23.4,22.6,00.0,32.5,25.1,08.3,0001.7,0012.73,0018.99,0012.13
2022-03-11 20:49:00,,0827.4,5.02,0.00,23.4,22.6,00.0,32.5,25.1,08.4,0001.9,0012.75,0018.79,0012.17
2022-03-11 20:50:00,,0827.4,4.99,0.00,23.4,22.6,00.0,32.5,25.1,08.6,0001.6,0012.75,0018.84,0012.18
2022-03-11 20:51:00,,0827.4,5.00,0.00,23.4,22.6,00.0,32.5,25.1,08.5,0001.4,0012.77,0018.64,0012.20
2022-03-11 20:52:00,,0827.4,4.98,0.00,23.4,22.6,00.0,32.4,25.1,08.1,0001.1,0012.79,0018.73,0012.21
2022-03-11 20:53:00,,0827.4,5.00,0.00,23.4,22.6,00.0,32.4,25.1,08.1,0001.1,0012.82,0018.77,0012.23
2022-03-11 20:54:00,,0827.4,5.01,0.00,23.4,22.6,00.0,32.4,25.2,07.9,0001.3,0012.84,0018.97,0012.25
2022-03-11 20:55:00,,0827.4,4.99,0.00,23.4,22.6,00.0,32.4,25.2,08.4,0001.8,0012.82,0018.95,0012.25
2022-03-11 20:56:00,,0827.4,4.99,0.00,23.4,22.7,00.0,32.4,25.2,08.4,0001.9,0012.81,0018.71,0012.26
2022-03-11 20:57:00,,0827.4,5.00,0.00,23.4,22.7,00.0,32.4,25.2,08.2,0001.9,0012.80,0018.73,0012.26
2022-03-11 20:58:00,,0827.4,4.99,0.00,23.4,22.7,00.0,32.4,25.2,08.1,0001.7,0012.77,0018.57,0012.25
2022-03-11 20:59:00,,0827.4,5.02,0.00,23.4,22.7,00.0,32.4,25.2,08.4,0001.4,0012.78,0018.73,0012.25
